AirNav   Pilot Hours Calculator
 
 612 users online  

42VA Virginia Beach Airport
Virginia Beach, Virginia, USA

GOING TO VIRGINIA BEACH?


FAA INFORMATION EFFECTIVE 31 DECEMBER 2020

Location

FAA Identifier: 42VA
Lat/Long: 36-40-44.0550N 076-01-57.9950W
36-40.734250N 076-01.966583W
36.6789042,-76.0327764
(estimated)
Elevation: 15 ft. / 5 m (estimated)
Variation: 10W (1990)
From city: 4 miles SE of VIRGINIA BEACH, VA
Time zone: UTC -5 (UTC -4 during Daylight Saving Time)
Zip code: 23457

Airport Operations

Airport use: Private use. Permission required prior to landing
Activation date: 04/1993
Control tower: no
ARTCC: WASHINGTON CENTER
FSS: LEESBURG FLIGHT SERVICE STATION
Attendance: UNATNDD
Wind indicator: yes
Segmented circle: no

Airport Communications

WX ASOS at NTU (9 nm N): PHONE DSN 433-3619 or 757-433-3619
WX AWOS-3 at CPK (14 nm W): 123.675 (757-204-4290)
WX ASOS at ORF (15 nm NW): PHONE 757-460-9348
WX AWOS-3 at ONX (17 nm S): 119.775 (252-453-8939)

Nearby radio navigation aids

VOR radial/distance  VOR name  Freq  Var
ORFr155/15.1NORFOLK VORTAC116.9007W
ECGr022/26.2ELIZABETH CITY VOR/DME112.5007W

 
NDB name  Hdg/Dist  Freq  Var  ID
INGLE142/14.332909WOR --- .-.
WOODVILLE037/28.025410WLLW .-.. .-.. .--

Airport Services

Runway Information

Runway 11/29

Dimensions: 4845 x 190 ft. / 1477 x 58 m
Surface: turf, in good condition
RUNWAY 11  RUNWAY 29
Latitude: 36-40.824167N36-40.644333N
Longitude: 076-02.449500W076-01.483667W
Elevation: 10.0 ft.9.0 ft.
Traffic pattern: leftleft

Airport Ownership and Management from official FAA records

Ownership: Privately-owned
Owner: VIRGINIA BEACH ARPT, LLC
4455 SOUTH BLVD
VIRGINIA BEACH, VA 23452
Phone 757-490-3157
Manager: GERALD YAGEN
4455 SOUTH BLVD
VIRGINIA BEACH, VA 23452
Phone 757-490-3157
EXTENSION 500.

Airport Operational Statistics

Aircraft based on the field: 54
Single engine airplanes: 50
Multi engine airplanes: 4
    

Additional Remarks

AWOS - PHONE 757-204-2683, FREQUENCY 119.925
FOR CD CTC WASHINGTON ARTCC AT 703-771-3587.

Instrument Procedures

There are no published instrument procedures at 42VA.

Some nearby airports with instrument procedures:

KNTU - Oceana Naval Air Station (Apollo Soucek Field) (9 nm N)
KCPK - Chesapeake Regional Airport (14 nm W)
KORF - Norfolk International Airport (15 nm NW)
KONX - Currituck County Regional Airport (17 nm S)
KNGU - Norfolk Naval Station (Chambers Field) (20 nm NW)
 
Loc | Ops | Rwys | IFR | FBO | Links
Com | Nav | Svcs | Stats | Notes
Area around 42VA (Virginia Beach Airport)
 
Road maps at: MapQuest Bing Google
 
Aerial photo
WARNING: Photo may not be current or correct
Aerial photo of 42VA (Virginia Beach Airport)
Photo by Jerry Yagen
Photo taken 10-Nov-2012
looking east.

Do you have a better or more recent aerial photo of Virginia Beach Airport that you would like to share? If so, please send us your photo.

 
Sectional chart

 
Airport distance calculator
Flying to Virginia Beach Airport? Find the distance to fly.

From to 42VA

Sunrise and sunset
Times for 17-Jan-2021
 Local
(UTC-5)
 Zulu
(UTC)
Morning civil twilight06:4811:48
Sunrise07:1612:16
Sunset17:1322:13
Evening civil twilight17:4122:41

Current date and time
Zulu (UTC)  17-Jan-2021 12:49:58
Local (UTC-5)  17-Jan-2021 07:49:58
 
METAR
KNFE 
5nm W 
171156Z AUTO 00000KT 10SM CLR 01/M04 A2986 RMK AO2 SLP114 70001 T00061039 10017 21011 51011 $
KNTU 
8nm N 
171156Z 24007KT 10SM CLR 02/M04 A2984 RMK AO2 SLP108 70002 T00171044 10028 20006 53010
KCPK 
14nm W 
171235Z AUTO 23005KT 10SM CLR 00/M04 A2988 RMK AO2 T00011040
KORF 
16nm NW 
171151Z 22009KT 10SM CLR 01/M03 A2984 RMK AO2 SLP104 T00111033 10033 20006 53009
KONX 
17nm S 
171235Z AUTO 21004KT 10SM CLR 00/M01 A2988 RMK AO2 T00011015
KNGU 
18nm NW 
171159Z 23010KT 10SM CLR 02/M04 A2986 RMK AO2 SLP110 T00171039 10033 20017 53010 $
TAF
KNTU 
8nm N 
1707/1807 26013G18KT 9999 SKC 520008 532409 533307 QNH2976INS BECMG 1718/1720 24015G20KT 9999 FEW035 500000 532409 533306 QNH2978INS BECMG 1723/1801 22008KT 9999 FEW010 SCT015 BKN025 532409 533306 QNH2979INS T01/1712Z T11/1721Z FN00199
KORF 
16nm NW 
171139Z 1712/1812 24009KT P6SM SCT250 FM171500 23011KT P6SM SCT250 FM180000 22006KT P6SM BKN200
KNGU 
18nm NW 
1707/1807 26013G18KT 9999 SKC 520008 532409 533307 QNH2976INS BECMG 1718/1720 24010G15KT 9999 FEW040 500000 532409 533306 QNH2978INS BECMG 1722/1800 23008KT 9999 FEW010 SCT015 BKN025 532409 533306 QNH2979INS T02/1712Z T12/1721Z FN00199
NOTAMs
Click for the latest NOTAMs
NOTAMs are issued by the DoD/FAA and will open in a separate window not controlled by AirNav.

 

 
 

Would you like to see your business listed on this page?

 If your business provides an interesting product or service to pilots, flight crews, aircraft, or users of the Virginia Beach Airport, you should consider listing it here.  To start the listing process, click on the button below
 
Add a business
 

Other Pages about Virginia Beach Airport

www.vbairport.com
Military Aviation Museum
www.fighterfactory.com
 
Update a link
 
Copyright © AirNav, LLC. All rights reserved. Privacy Policy  Contact